Вернуться в каталог

STARLINK-1443

АктивенСвязьVLEO
NORAD 45660·PAYLOAD·🇺🇸 United States

Запущен Jun 4, 2020 с Cape Canaveral Space Force Station

Loading…

Ближайшие Пролёты (ближайшие 24 часа)

TLE

СвежийSource: CelesTrak SupGP

Эпоха: Sep 14, 2026, 21:10 UTC

1 45660C 20035D   26257.88243056  .00074907  00000+0  18398-2 0  2573
2 45660  53.1296 262.0764 0004045  34.5694  38.1642 15.40049359    15

Отслеживайте STARLINK-1443 в реальном времени с AllMySat

Download on the App Store